Location: ????????
(55.7667°N, 37.4833°E)
Time: 14:04:09
(UTC+00:00)

Cosmos 1842 - Pass Details

Date: 19 May 2025
Orbit: 439 x 450 km, 82.5° (Epoch: 19 June)

Event Time Altitude Azimuth Distance (km) Brightness Sun altitude
Exits shadow 20:32:13 22° 143° (SE) 1,030 4.2 -13.4°
Maximum altitude 20:33:48 35° 93° (E) 757 3.9 -13.4°
Drops below altitude 10° 20:37:01 10° 27° (NNE) 1,603 6.5 -13.5°
Sets 20:39:12 0° 18° (NNE) 2,483 7.8 -13.6°
